Weather History for PASI - April, 2012

Change the Weather History Date:

Saturday, April 14, 2012

  Actual Average Record
Temperature  
Mean Temperature 42 °F -  
Max Temperature 45 °F 47 °F 62 °F (1965)
Min Temperature 39 °F 35 °F 29 °F (1967)
Degree Days  
Heating Degree Days 24    
Moisture  
Dew Point 40 °F    
Average Humidity 92    
Maximum Humidity 100    
Minimum Humidity 73    
Precipitation  
Precipitation 0.00 in - - ()
Sea Level Pressure  
Sea Level Pressure 29.98 in    
Wind  
Wind Speed 6 mph (SSW)    
Max Wind Speed 13 mph    
Max Gust Speed -    
Visibility 10 miles    
Events Rain    
Averages and records for this station are not official NWS values.
T = Trace of Precipitation, MM = Missing Value Source: NWS Daily Summary

Daily Weather History Graph

Daily Weather History Graph

Search for Another Location

Airport or City:

Trip Planner

Search our weather history database for the weather conditions in past years. The results will help you decide how hot, cold, wet, or windy it might be!

Date:

Astronomy

Apr. 14, 2012 Rise Set
Actual Time 5:54 AM AKDT 8:10 PM AKDT
Civil Twilight 5:12 AM AKDT 8:52 PM AKDT
Nautical Twilight 4:19 AM AKDT 9:45 PM AKDT
Astronomical Twilight 3:13 AM AKDT 10:53 PM AKDT
Moon 3:35 AM AKDT (4/14) 1:01 PM AKDT (4/14)
Length of Visible Light 15h 39m
Length of Day
14h 16m
Waning Crescent, 36% of the Moon is Illuminated
Apr 14
Waning Crescent
Apr 20
New
Apr 29
First Quarter
May 5
Full
May 12
Last Quarter

Hourly Weather History & Observations

Time (AKDT) Temp. Windchill Dew Point Humidity Pressure Visibility Wind Dir Wind Speed Gust Speed Precip Events Conditions
12:53 AM 42.1 °F 39.2 °F 41.0 °F 96% 29.94 in 10.0 mi East 4.6 mph - 0.00 in   Overcast
1:16 AM 42.8 °F 39.3 °F 41.0 °F 93% 29.94 in 10.0 mi ESE 5.8 mph - N/A   Overcast
1:53 AM 42.1 °F 40.2 °F 41.0 °F 96% 29.96 in 10.0 mi SE 3.5 mph - N/A   Overcast
2:02 AM 42.8 °F - 41.0 °F 93% 29.95 in 10.0 mi Calm Calm - N/A   Overcast
2:53 AM 42.1 °F 37.1 °F 41.0 °F 96% 29.96 in 10.0 mi SSW 8.1 mph - 0.00 in Rain Light Rain
3:53 AM 42.1 °F 39.2 °F 41.0 °F 96% 29.96 in 9.0 mi SSW 4.6 mph - 0.00 in Rain Light Rain
4:49 AM 41.0 °F 35.8 °F 41.0 °F 100% 29.96 in 10.0 mi SW 8.1 mph - 0.00 in   Overcast
4:53 AM 41.0 °F 38.0 °F 41.0 °F 100% 29.96 in 10.0 mi WSW 4.6 mph - 0.00 in   Overcast
5:53 AM 41.0 °F - 41.0 °F 100% 29.95 in 10.0 mi Calm Calm - 0.00 in   Overcast
6:53 AM 41.0 °F 36.4 °F 39.9 °F 96% 29.96 in 10.0 mi SW 6.9 mph - N/A   Overcast
7:53 AM 39.9 °F 35.1 °F 39.9 °F 100% 29.97 in 5.0 mi SW 6.9 mph - N/A   Overcast
8:53 AM 39.9 °F 35.8 °F 39.9 °F 100% 29.97 in 9.0 mi SSW 5.8 mph - N/A   Overcast
9:53 AM 41.0 °F 38.0 °F 41.0 °F 100% 29.97 in 10.0 mi SSW 4.6 mph - N/A   Overcast
10:53 AM 39.9 °F 32.5 °F 39.9 °F 100% 29.98 in 10.0 mi SSW 12.7 mph - N/A   Overcast
11:53 AM 39.0 °F 31.4 °F 39.0 °F 100% 29.99 in 10.0 mi SSW 12.7 mph - N/A   Overcast
12:53 PM 41.0 °F 35.2 °F 41.0 °F 100% 29.99 in 10.0 mi SW 9.2 mph - N/A   Overcast
1:53 PM 41.0 °F 34.3 °F 39.0 °F 93% 29.99 in 10.0 mi SW 11.5 mph - N/A   Overcast
2:33 PM 42.8 °F 39.3 °F 39.2 °F 87% 30.00 in 10.0 mi SW 5.8 mph - N/A   Overcast
2:53 PM 43.0 °F 38.8 °F 39.9 °F 89% 30.00 in 10.0 mi SSW 6.9 mph - N/A   Overcast
3:07 PM 42.8 °F 37.5 °F 39.2 °F 87% 30.00 in 10.0 mi SW 9.2 mph - N/A   Overcast
3:28 PM 42.8 °F 37.0 °F 39.2 °F 87% 30.00 in 10.0 mi SSW 10.4 mph - N/A   Mostly Cloudy
3:53 PM 44.1 °F 39.5 °F 39.9 °F 85% 30.00 in 10.0 mi SW 8.1 mph - N/A   Mostly Cloudy
4:53 PM 44.1 °F 40.8 °F 39.9 °F 85% 29.99 in 10.0 mi SW 5.8 mph - N/A   Mostly Cloudy
5:53 PM 43.0 °F 39.5 °F 39.0 °F 86% 29.99 in 10.0 mi SW 5.8 mph - N/A   Mostly Cloudy
6:53 PM 44.1 °F 42.5 °F 37.9 °F 79% 29.99 in 10.0 mi Variable 3.5 mph - N/A   Overcast
7:53 PM 43.0 °F 38.2 °F 39.0 °F 86% 29.99 in 10.0 mi NNW 8.1 mph - N/A   Overcast
8:53 PM 43.0 °F 38.8 °F 39.0 °F 86% 30.00 in 10.0 mi NNW 6.9 mph - N/A   Overcast
9:53 PM 43.0 °F - 37.9 °F 82% 30.00 in 10.0 mi Calm Calm - N/A   Overcast
10:53 PM 43.0 °F 40.3 °F 37.0 °F 80% 29.99 in 10.0 mi East 4.6 mph - N/A   Overcast
11:53 PM 44.1 °F 39.5 °F 36.0 °F 73% 29.99 in 10.0 mi SE 8.1 mph - N/A   Overcast